User: anonymous   Login
Location: Wien
(48.2082°N, 16.3738°E)
Time: 04:15:54
(UTC+01:00)
Language:

MOZHAYETS 4 - Orbit

View from above orbital plane
View from above orbital plane
View from above satellite
View from above satellite

Ground track
Ground track

The orbit data is extracted from the following two-line orbital elements,

1 27939U 03042A   19079.86425645  .00000062  00000-0  19658-4 0  9996
2 27939  98.0232 217.5091 0012639 358.7561   1.3613 14.66761588827370
Epoch (UTC): 20 March 2019 20:44:31
Eccentricity: 0.0012639
inclination: 98.0232°
perigee height: 662 km
apogee height: 680 km
right ascension of ascending node: 217.5091°
argument of perigee: 358.7561°
revolutions per day: 14.66761588
mean anomaly at epoch: 1.3613°
orbit number at epoch: 82737

The dashed part of the orbit path shows where the satellite is in the earth's shadow,  

DLR